Welcome to the New NWS' Forecast!
Most changes are behind the scenes, but click here for differences you might notice.
Latest weather observations around

Palm Springs Regional Airport (KPSP)

Using English Units (Switch to International System of Units)
Date/ Time (PDT) Wind (mph) Vis. (mi) Weather Sky Cond. Temp (°F) Rel. Humidity Wind Chill (°F) Heat Index (°F) Pressure Precip. (in)
Air Dwpt 6 hour Altimeter (inHg) Sea level (inHg) 1 hr 3 hr 6 hr
Max Min
Jul 16 01:53 WNW 5 10 Clear CLR 91 55     30%   89 29.84 29.82      
Jul 16 00:53 NW 9 10 Clear CLR 92 55     29%   90 29.85 29.83      
Jul 15 23:53 NW 10 10 Clear CLR 93 55     28%   91 29.84 29.82      
Jul 15 22:53 NW 13 10 Clear CLR 96 55     25%   94 29.83 29.81      
Jul 15 21:53 NW 10 10 Clear CLR 99 54     22%   97 29.82 29.8      
Jul 15 20:53 NW 7 10 Clear CLR 101 56     23%   100 29.79 29.77      
Jul 15 19:53 7 10 Clear CLR 104 57     21%   104 29.78 29.76      
Jul 15 18:53 E 8 10 Clear CLR 105 59     22%   106 29.77 29.75      
Jul 15 17:53 ESE 7 10 Clear CLR 107 58     20%   108 29.76 29.74      
Jul 15 16:53 SE 9 10 Clear CLR 108 57     19%   108 29.77 29.75      
Jul 15 15:53 SE 10 10 Clear CLR 109 57     19%   109 29.78 29.77      
Jul 15 14:53 E 9 10 Clear CLR 108 58     20%   109 29.81 29.79      
Jul 15 13:53 ENE 10 10 Clear CLR 107 56     19%   107 29.84 29.83      
Jul 15 12:53 NE 5 10 Clear CLR 106 55     19%   105 29.86 29.85      
Jul 15 11:53 NE 7 10 Clear CLR 104 54     19%   102 29.88 29.86      
Jul 15 10:53 Calm 10 Clear CLR 101 57     24%   100 29.88 29.86      
Jul 15 09:53 ESE 5 10 Clear CLR 98 57     26%   97 29.88 29.86      
Jul 15 08:53 S 5 10 Clear CLR 94 58     30%   93 29.89 29.87      
Jul 15 07:53 6 10 Clear CLR 93 56     29%   91 29.87 29.85      
Jul 15 06:53 Calm 10 Clear CLR 90 59     35%   89 29.85 29.83      
Jul 15 05:53 SSE 5 10 Clear CLR 89 58     35%   88 29.84 29.83      
Jul 15 04:53 WNW 6 10 Clear CLR 92 55     29%   90 29.83 29.81      
Jul 15 03:53 W 3 10 Clear CLR 91 60     36%   91 29.83 29.82      
Jul 15 02:53 Calm 10 Clear CLR 93 58     31%   92 29.83 29.81      
Jul 15 01:53 SSE 7 10 Clear CLR 93 58     31%   92 29.83 29.81      
Jul 15 00:53 WNW 6 10 Clear CLR 96 56     26%   95 29.83 29.81      
Jul 14 23:53 NW 13 10 Clear CLR 97 55     25%   95 29.83 29.81      
Jul 14 22:53 NW 14 10 Clear CLR 100 53     21%   98 29.81 29.79      
Jul 14 21:53 NW 13 10 Clear CLR 102 52     19%   100 29.8 29.78      
Jul 14 20:53 NW 16 10 Clear CLR 103 54     20%   101 29.78 29.76      
Jul 14 19:53 NW 17 10 Clear CLR 105 57     21%   105 29.76 29.74      
Jul 14 18:53 NW 15 10 Clear CLR 109 57     19%   109 29.74 29.72      
Jul 14 17:53 NW 17 10 Clear CLR 111 55     16%   110 29.74 29.72      
Jul 14 16:53 NW 17 10 Clear CLR 112 53     15%   110 29.74 29.72      
Jul 14 15:53 6 10 Clear CLR 112 54     15%   111 29.76 29.74      
Jul 14 14:53 E 8 10 Clear CLR 112 54     15%   111 29.78 29.76      
Jul 14 13:53 5 10 Clear CLR 111 55     16%   110 29.81 29.8      
Jul 14 12:53 5 10 Partly Cloudy SCT120 110 55     17%   109 29.84 29.82      
Jul 14 11:53 6 10 Clear CLR 106 55     19%   105 29.87 29.85      
Jul 14 10:53 Calm 10 Clear CLR 105 56     20%   104 29.89 29.87 0   0
Jul 14 09:53 3 10 Clear CLR 100 57     24%   99 29.89 29.88      
Jul 14 08:53 Calm 10 Mostly Clear FEW110 96 59     29%   96 29.9 29.88      
Jul 14 07:53 SSE 5 10 Clear CLR 93 60     33%   93 29.9 29.88      
Jul 14 06:53 S 3 10 Clear CLR 89 63     42%   90 29.89 29.87      
Jul 14 04:53 Calm 10 Clear CLR 88 61     40%   88 29.86 29.84      
Jul 14 03:53 SSE 3 10 Clear CLR 88 62     42%   88 29.86 29.84      
Jul 14 02:53 SE 5 10 Clear CLR 91 62     38%   92 29.86 29.84      
Jul 14 00:53 SSW 3 10 Clear CLR 95 60     31%   95 29.87 29.85      
Jul 13 22:53 NW 15 10 Clear CLR 97 59     29%   97 29.88 29.85      
Jul 13 21:53 NW 15 10 Clear CLR 98 59     28%   98 29.87 29.85      
Jul 13 20:53 NW 14 10 Clear CLR 102 58     24%   102 29.84 29.82      
Jul 13 19:53 WNW 11 10 Clear CLR 103 58     23%   103 29.82 29.81      
Jul 13 18:53 NW 16 10 Clear CLR 107 58     20%   108 29.81 29.79      
Jul 13 17:53 S 5 10 Clear CLR 108 57     19%   108 29.8 29.78      
Jul 13 16:57 N 3 10 Clear CLR 108 58     20%   109 29.81        
Jul 13 16:53 S 6 10 Clear CLR 108 58     20%   109 29.81 29.8      
Jul 13 15:53 ESE 7 10 Clear CLR 109 58     19%   110 29.84 29.82      
Jul 13 14:53 ESE 8 10 Clear CLR 108 58     20%   109 29.86 29.84      
Jul 13 13:53 E 9 10 Clear CLR 107 60     22%   109 29.89 29.87      
Jul 13 12:53 ESE 8 10 Clear CLR 105 60     23%   107 29.91 29.89      
Jul 13 11:53 6 10 Clear CLR 102 60     25%   103 29.94 29.92      
Jul 13 10:53 6 10 Mostly Clear FEW100 101 59     25%   101 29.95 29.93      
Jul 13 09:53 SSE 7 10 Clear CLR 98 60     29%   98 29.95 29.94      
Jul 13 08:53 Calm 10 Clear CLR 95 60     31%   95 29.95 29.94      
Jul 13 07:53 Calm 10 Clear CLR 90 62     40%   90 29.94 29.92      
Jul 13 06:53 Calm 10 Clear CLR 87 63     45%   88 29.93 29.91      
Jul 13 05:53 Calm 10 Clear CLR 84 65     53%   86 29.91 29.9      
Jul 13 04:53 S 3 10 Clear CLR 85 65     51%   87 29.9 29.89      
Jul 13 03:53 Calm 10 Clear CLR 86 62     45%   87 29.9 29.89      
Jul 13 02:53 Calm 10 Clear CLR 87 63     45%   88 29.91 29.89      
Jul 13 00:53 Calm 10 Clear CLR 91 60     36%   91 29.91 29.89      
May 15 02:53 Calm 10 Clear CLR 69 48     47%     29.84 29.83      
May 14 20:53 NW 21 10 Clear and Windy CLR 78 49     36%   77 29.82 29.81      
May 14 19:53 NW 21 10 Clear and Windy CLR 81 49     33%   80 29.79 29.78      
May 13 21:53 NW 14 10 Clear CLR 74 45     36%   73 29.85 29.84      
May 13 09:53 NW 16 10 Clear   75 44     33%   74 29.93 29.92      
May 12 18:53 NW 22 10 Clear and Windy CLR 75 43     32%   74 29.77 29.76      
May 12 17:53 NW 22 10 Clear and Windy CLR 78 44     30%   77 29.77 29.76      
May 12 16:53 NW 22 10 Clear and Windy CLR 79 44     29%   78 29.76 29.76      
May 12 08:53 WNW 14 10 Clear CLR 70 44     39%     29.85 29.84      
May 12 06:53 WNW 10 10 Clear CLR 65 44     47%     29.81 29.8      
May 12 00:53 SE 6 10 Clear CLR 66 45     47%     29.7 29.69      
May 11 21:53 NW 15 10 Clear CLR 73 41     31%   72 29.68 29.67      
May 11 13:53 NW 22 10 Clear and Windy CLR 83 47     28%   81 29.65 29.64      
Jun 12 04:53 S 8 10 Clear CLR 64 44     48%     29.86 29.85      
Jun 11 21:53   10 Clear CLR 73 43     34%   72 29.8 29.79      
Jun 11 20:53 NNW 15 10 Clear CLR 75 44     33%   74 29.76 29.75      
Jun 11 19:53 NNW 17 10 Clear CLR 79 41     26%   78 29.74 29.73      
Jun 11 18:53 S 8 10 Clear CLR 81 38     21%   80 29.72 29.71      
Jun 10 23:53 NW 18 10 Clear CLR 75 46     36%   74 29.66 29.65      
Jun 10 19:53 NW 17 10 Clear   85 48     28%   83 29.63 29.61      
Jun 08 23:53 WNW 7 10 Clear CLR 83 41     23%   81 29.78 29.76      
Jun 08 17:53 NW 21 10 Clear and Windy CLR 97 40     14%   92 29.74 29.72      
Jun 07 07:53 Calm 10 Clear CLR 78 58     50%   78 29.86 29.85      
Jun 06 12:53 ESE 8 10 Clear CLR 100 45     15%   96 29.82 29.8      
Jun 06 07:53 W 5 10 Clear CLR 83 55     38%   82 29.85 29.84